STARLINK-35200

Last updated on Mon Oct 20 2025 00:02:07 GMT+0000 (Coordinated Universal Time)

1 65855U 25223B 25292.25002315 -.01909250 00000+0 -21821-1 0 9993 2 65855 53.1596 235.0110 0001152 87.7279 5.6977 15.64691633 3732
UTC large
Height (km)
Speed (km/s)
/
Latitude / Longitude
Inclination (degrees)
Orbital Period (minutes)
Azimuth
Elevation
Range (km)
Doppler Factor

Next 0 passes for location: London (51.5072 / 0.1276)

Sorry there are no passes over London.